This is the latest recevied weather packets stored in our database for station/object IZ1GCT. If no packets are shown the sender has not sent any weather packets the latest 1 day(s).
| Time | Temp. | Humidity | Pressure | Rain* | Wind** | Luminosity | Snow |
|---|---|---|---|---|---|---|---|
| 1777973449 | 11.67° C | 81% | 1016.7 hPa | 0 mm | 0.89 m/s, 135° | - | - |
| 1777973149 | 11.67° C | 81% | 1016.7 hPa | 0 mm | 0.89 m/s, 149° | - | - |
| 1777972848 | 11.67° C | 82% | 1016.6 hPa | 0 mm | 0.89 m/s, 135° | - | - |
| 1777972548 | 11.67° C | 82% | 1016.5 hPa | 0 mm | 0.45 m/s, 131° | - | - |
| 1777972249 | 11.67° C | 82% | 1016.4 hPa | 0 mm | 0.45 m/s, 90° | - | - |
| 1777971948 | 11.67° C | 81% | 1016.5 hPa | 0 mm | 0.45 m/s, 187° | - | - |
| 1777971648 | 11.67° C | 81% | 1016.5 hPa | 0 mm | 0.45 m/s, 225° | - | - |
| 1777971349 | 11.11° C | 81% | 1016.4 hPa | 0 mm | 0.45 m/s, 180° | - | - |
| 1777971048 | 11.11° C | 81% | 1016.3 hPa | 0 mm | 0.45 m/s, 180° | - | - |
| 1777970749 | 11.11° C | 80% | 1016.3 hPa | 0 mm | 0 m/s | - | - |
| 1777970448 | 10.56° C | 80% | 1016.2 hPa | 0 mm | 0.89 m/s, 226° | - | - |
| 1777970148 | 10.56° C | 80% | 1016.2 hPa | 0 mm | 0.89 m/s, 244° | - | - |
| 1777969849 | 10.56° C | 79% | 1016.2 hPa | 0 mm | 0.89 m/s, 270° | - | - |
| 1777969548 | 10.56° C | 79% | 1016.2 hPa | 0 mm | 0.89 m/s, 230° | - | - |
| 1777969248 | 10.56° C | 80% | 1016.2 hPa | 0 mm | 0.89 m/s, 243° | - | - |
| 1777968948 | 10.56° C | 80% | 1016.2 hPa | 0 mm | 0.89 m/s, 270° | - | - |
| 1777968649 | 10.56° C | 80% | 1016.2 hPa | 0 mm | 0.89 m/s, 270° | - | - |
| 1777968348 | 10.56° C | 79% | 1016.2 hPa | 0 mm | 2.24 m/s, 270° | - | - |
| 1777968048 | 10.56° C | 79% | 1016.2 hPa | 0 mm | 1.34 m/s, 270° | - | - |
| 1777967748 | 10° C | 79% | 1016.2 hPa | 0 mm | 2.24 m/s, 270° | - | - |
| 1777967448 | 10° C | 80% | 1016.2 hPa | 0 mm | 1.34 m/s, 270° | - | - |
| 1777967148 | 10° C | 80% | 1016.3 hPa | 0 mm | 2.24 m/s, 268° | - | - |
| 1777966849 | 10° C | 80% | 1016.2 hPa | 0 mm | 1.34 m/s, 270° | - | - |
| 1777966548 | 10° C | 79% | 1016.2 hPa | 0 mm | 1.34 m/s, 270° | - | - |
| 1777966248 | 10° C | 78% | 1016.2 hPa | 0 mm | 2.24 m/s, 270° | - | - |
* Rain latest hour (hover to see other rain measurements)
** Current wind speed in m/s (hover to see current wind gust speed)